Wind_Speed
19 20 20 20 21 22 23 23 23 23 21 19 20 20 21 21 20 19 19 20 21 22 23 22 22 23 23 23 24 24 24 24 23 24 24 24 23 23 23 24 25 25 26
11 11 12 14 15 15 15 16 15 15 16 16 16 17 17 17 17 18 19 20 21 22 22 23 23 24 24 24 24 24 24 24 24 24 24 24 23 23 23 22 23 25 26
5 5 7 7 8 8 7 7 8 9 10 10 11 11 12 14 16 18 19 21 21 22 22 22 23 23 23 24 24 24 24 24 24 23 23 23 23 22 22 23 23 24 25
2 1 1 1 1 2 3 5 5 6 6 7 9 11 13 15 18 19 20 20 21 21 21 22 22 22 22 22 23 23 23 23 23 22 23 23 23 22 23 23 22 22 24
6 5 4 3 3 3 4 5 6 7 8 10 12 13 15 16 17 19 19 19 20 20 21 21 21 22 22 22 22 22 22 22 23 22 22 23 23 22 22 22 22 22 23
7 6 6 6 6 7 7 8 9 10 11 12 14 15 16 16 17 18 18 19 19 20 20 21 21 21 21 21 21 21 21 22 22 22 22 22 22 22 21 21 21 20 20
9 8 8 8 8 9 10 11 11 12 13 14 15 16 16 17 18 18 19 18 19 19 20 20 20 20 20 21 21 21 21 21 21 21 21 21 21 21 20 20 20 19 19
11 10 10 10 10 10 11 11 12 13 13 14 15 15 16 17 18 18 19 20 20 20 20 19 19 19 20 20 20 20 21 20 20 20 20 20 20 20 20 19 19 19 18
13 12 12 11 11 11 11 11 12 12 13 13 14 15 16 16 17 18 18 19 20 20 19 19 19 19 20 20 19 19 18 18 18 19 19 19 19 19 19 19 18 18 18
15 14 14 14 13 13 12 12 12 12 13 13 13 13 14 15 15 16 16 17 17 18 17 18 18 19 19 19 18 17 17 17 17 17 17 17 17 18 18 17 17 17 17
17 16 16 15 15 14 13 13 13 13 12 12 12 12 12 13 13 13 13 14 14 15 15 15 16 17 17 17 17 16 17 17 17 17 16 16 16 16 16 16 16 16 16
18 18 18 17 16 16 15 14 14 14 13 13 12 12 12 12 11 11 10 11 11 11 11 12 12 13 14 14 14 15 16 16 16 16 16 16 15 15 15 15 15 16 16
20 20 19 19 18 17 17 16 16 16 15 14 14 13 13 11 10 8 7 7 7 8 8 9 10 10 11 12 12 13 13 14 15 15 14 15 15 15 15 15 15 15 16
21 21 21 20 19 19 18 17 17 17 16 16 15 15 14 12 11 9 6 5 5 4 5 6 6 6 7 8 9 10 11 11 12 12 12 13 13 14 14 14 14 15 16
20 20 21 21 20 19 19 19 18 18 18 17 17 16 16 15 13 11 8 6 4 3 3 3 3 4 5 6 7 7 8 9 9 9 9 10 10 11 12 12 13 14 15
20 21 21 21 20 20 20 19 19 19 19 18 18 18 18 17 16 14 12 9 7 5 4 4 3 3 3 3 4 4 4 5 5 6 7 7 8 9 9 10 11 12 13
20 20 21 21 21 20 20 20 19 19 19 19 19 19 19 19 19 18 16 14 12 10 9 7 6 6 5 5 5 4 3 3 4 4 5 5 6 7 8 9 10 11 12
19 19 20 20 20 20 20 20 20 20 20 19 19 19 20 20 20 20 19 18 16 15 13 12 10 10 9 9 8 7 6 6 5 5 5 5 6 6 7 8 9 10 11
18 18 18 19 19 20 20 20 20 19 19 19 19 19 19 20 20 20 20 19 19 18 17 16 15 14 13 12 12 11 10 9 9 9 8 8 8 8 8 8 9 10 11
17 17 17 18 18 18 19 19 19 19 19 18 19 19 19 19 19 19 19 19 19 19 18 17 17 16 15 15 14 14 13 12 12 12 11 11 10 10 10 10 10 11 11
15 16 16 17 17 17 18 18 18 18 18 18 17 18 18 18 18 18 18 18 18 18 17 17 17 16 16 16 15 15 15 14 13 13 13 13 13 12 12 12 12 12 13
13 14 14 15 16 16 17 17 18 17 17 17 17 16 16 16 16 16 16 16 16 16 16 16 16 16 15 15 15 15 15 15 14 14 14 14 14 14 14 14 14 14 14
11 12 13 13 14 15 15 16 16 16 16 16 16 16 15 15 16 15 16 15 15 15 15 15 15 15 15 14 14 14 15 15 15 14 14 14 14 15 15 15 15 15 15
9 10 11 12 13 13 14 14 14 14 15 14 14 14 14 14 14 15 15 15 15 15 15 15 14 14 14 14 14 15 15 15 15 15 15 15 15 15 15 15 16 16 16
8 8 9 10 11 11 12 13 13 13 13 13 13 13 13 13 13 13 14 14 14 14 14 14 14 14 14 14 14 14 14 14 15 15 15 15 15 15 15 16 16 16 17
8 8 8 8 9 9 10 11 12 12 12 12 12 11 11 11 11 12 12 12 12 13 13 13 13 13 14 14 14 14 14 14 15 15 15 15 15 15 15 15 16 16 17
Wind_Direction
266 266 263 261 263 265 266 263 264 263 259 256 251 250 247 239 236 240 245 250 253 256 259 261 262 264 266 269 270 271 272 273 273 273 276 276 274 270 264 261 259 256 254
269 266 263 263 265 264 263 260 257 253 249 245 240 241 241 239 240 245 250 254 256 258 260 262 264 265 267 269 270 271 271 272 273 273 275 275 274 273 266 263 260 257 254
265 267 264 261 262 264 260 246 242 243 236 233 237 239 243 247 250 252 256 257 259 261 263 264 264 265 267 268 268 269 270 272 274 273 272 273 274 274 269 267 267 261 254
13 354 318 306 269 246 258 247 243 246 248 250 257 258 256 257 256 255 258 260 261 262 263 263 264 266 267 268 269 269 270 272 274 273 271 271 272 275 270 267 271 265 255
33 28 20 6 354 321 303 291 281 275 273 271 271 269 266 264 263 262 262 263 263 263 263 263 265 267 267 268 269 270 270 271 273 272 271 272 271 274 273 271 272 269 258
23 14 3 347 331 318 307 299 293 287 281 277 275 273 271 268 266 266 267 267 265 265 266 267 267 268 268 268 269 270 270 270 270 271 272 273 271 272 273 273 274 267 262
11 1 349 337 326 318 309 302 298 294 290 284 280 278 274 271 270 268 268 268 267 267 267 268 269 269 268 268 269 270 270 271 270 270 271 273 272 271 272 274 273 273 267
7 360 351 342 333 325 317 309 303 299 295 290 286 283 280 277 275 273 271 269 267 267 268 269 269 269 269 269 268 269 270 271 271 271 271 272 273 272 271 272 273 274 274
12 6 359 353 346 339 331 323 316 309 304 299 294 289 285 281 279 277 273 270 269 268 268 269 268 267 268 268 269 270 271 272 272 272 272 272 273 274 275 273 275 276 275
16 12 7 2 356 351 345 340 334 327 321 315 309 302 296 289 284 280 275 272 270 269 268 267 267 266 266 266 268 269 270 272 273 272 271 272 274 274 275 275 276 276 275
21 18 16 12 8 3 358 353 349 345 339 333 326 319 312 305 296 288 282 277 274 272 269 267 266 266 265 264 265 267 269 271 270 270 272 273 273 273 274 273 273 274 275
27 25 22 20 17 14 11 8 3 359 354 349 343 336 330 322 313 301 291 283 277 274 271 268 267 267 265 264 266 269 269 269 270 270 271 273 274 272 272 274 274 276 276
29 27 25 22 21 19 18 16 13 10 6 2 358 354 349 343 335 324 309 295 285 278 272 271 270 268 265 265 267 269 269 268 269 270 271 272 274 276 276 276 277 278 280
28 26 25 24 24 23 22 20 18 17 16 15 13 11 10 8 5 358 347 332 317 302 287 280 275 272 270 270 272 273 271 269 269 271 272 275 276 278 278 279 280 282 284
28 26 26 26 26 26 26 25 24 24 24 24 24 23 23 22 22 22 19 14 6 356 338 315 294 285 283 282 280 279 277 274 274 275 276 278 280 282 282 283 285 287 289
29 28 28 27 27 27 27 28 28 29 29 30 30 30 30 31 31 32 34 36 37 35 27 21 16 1 342 327 314 302 296 292 290 287 285 285 288 290 291 294 295 296 296
28 28 28 28 29 29 29 29 30 31 32 33 34 35 36 38 40 41 44 46 48 50 51 52 52 45 36 30 26 18 6 354 343 328 316 307 305 307 307 307 308 308 308
24 25 27 28 29 30 31 32 32 33 34 35 37 38 40 42 44 46 48 50 52 55 57 59 59 56 54 51 48 45 41 32 22 12 1 351 342 336 332 327 323 320 319
22 23 25 26 27 28 30 31 33 34 35 37 39 41 42 44 45 47 49 52 54 56 57 58 59 59 58 56 54 52 50 48 44 39 35 29 20 11 1 352 346 342 338
20 21 23 25 26 27 28 29 31 32 34 37 39 41 42 44 46 47 49 51 53 54 55 56 57 56 56 55 53 52 51 49 46 42 38 33 28 23 18 13 8 4 360
18 20 22 23 25 26 27 27 29 31 33 34 36 38 40 42 43 45 47 49 50 51 52 53 54 54 53 53 51 50 48 46 44 40 37 33 30 27 24 20 17 13 10
14 16 18 20 21 23 24 26 27 29 31 32 34 36 37 39 41 43 44 45 46 47 48 49 49 48 48 47 46 45 44 43 41 39 37 34 33 31 29 27 23 20 17
6 10 12 14 16 17 19 21 24 26 27 29 31 34 36 37 39 40 40 41 42 43 43 43 43 43 43 43 42 41 40 39 38 37 36 35 33 31 29 27 25 22 20
355 1 5 8 11 13 15 17 19 22 24 27 29 31 33 34 35 35 36 38 39 40 41 41 41 41 41 41 41 40 39 38 36 34 33 33 32 31 29 27 25 23 21
338 346 354 360 4 8 11 13 15 17 20 22 25 27 29 31 31 32 34 36 37 39 39 39 40 40 39 39 39 38 37 36 35 34 32 31 30 29 27 25 23 22 21
316 323 332 342 350 356 1 6 9 11 14 17 19 21 23 25 27 28 30 32 33 34 35 36 37 38 38 38 38 37 36 35 33 32 31 30 29 27 26 25 23 22 20
Height
5787 5788 5788 5789 5790 5790 5790 5791 5792 5792 5792 5794 5795 5797 5798 5799 5801 5804 5806 5808 5810 5811 5813 5813 5814 5815 5816 5816 5816 5816 5817 5817 5817 5817 5817 5817 5817 5817 5817 5817 5818 5820 5821
5783 5784 5784 5785 5785 5785 5786 5787 5787 5788 5789 5790 5791 5792 5794 5796 5798 5800 5801 5803 5805 5806 5807 5807 5808 5809 5810 5810 5810 5810 5811 5811 5811 5811 5810 5810 5811 5811 5811 5811 5812 5814 5815
5781 5781 5782 5782 5782 5782 5782 5784 5785 5785 5786 5787 5788 5789 5791 5792 5794 5795 5797 5798 5799 5800 5801 5802 5802 5803 5803 5803 5804 5804 5805 5805 5805 5805 5804 5804 5805 5805 5805 5805 5806 5807 5808
5781 5781 5781 5781 5781 5781 5782 5782 5783 5783 5784 5785 5786 5787 5788 5789 5789 5791 5791 5792 5793 5794 5795 5796 5796 5797 5797 5797 5798 5798 5799 5799 5799 5799 5799 5799 5799 5799 5799 5799 5799 5800 5801
5782 5781 5781 5781 5781 5781 5781 5781 5781 5781 5782 5782 5783 5784 5784 5784 5785 5785 5786 5787 5788 5788 5789 5790 5790 5791 5791 5791 5792 5792 5792 5792 5792 5792 5793 5793 5793 5793 5793 5793 5793 5794 5794
5783 5782 5782 5781 5781 5780 5780 5780 5779 5779 5779 5779 5779 5779 5779 5779 5780 5780 5780 5781 5782 5782 5783 5784 5784 5785 5785 5785 5786 5786 5786 5786 5786 5786 5786 5787 5787 5787 5787 5787 5787 5787 5788
5784 5783 5782 5781 5780 5779 5778 5777 5776 5776 5775 5775 5775 5774 5774 5774 5774 5774 5774 5775 5776 5777 5777 5778 5779 5779 5779 5779 5779 5779 5780 5780 5780 5780 5780 5780 5781 5781 5782 5782 5782 5781 5782
5784 5782 5781 5780 5778 5777 5776 5775 5773 5772 5772 5771 5770 5769 5768 5768 5768 5768 5768 5769 5770 5770 5771 5772 5773 5772 5772 5773 5773 5773 5773 5773 5774 5774 5774 5775 5775 5775 5776 5776 5776 5776 5777
5784 5782 5780 5779 5777 5775 5774 5772 5770 5769 5768 5766 5765 5764 5763 5763 5762 5762 5762 5762 5763 5764 5765 5766 5766 5766 5766 5766 5767 5767 5768 5768 5768 5768 5769 5769 5769 5769 5770 5770 5770 5771 5771
5785 5782 5780 5778 5776 5773 5771 5770 5768 5766 5764 5762 5761 5759 5758 5757 5757 5756 5756 5756 5757 5758 5759 5759 5759 5760 5760 5760 5761 5762 5762 5762 5763 5763 5763 5764 5764 5764 5764 5765 5765 5765 5766
5786 5783 5781 5778 5775 5773 5770 5768 5766 5764 5761 5759 5758 5756 5754 5752 5751 5751 5750 5751 5751 5752 5752 5753 5753 5754 5754 5755 5755 5756 5756 5757 5758 5758 5758 5759 5759 5759 5759 5760 5760 5760 5761
5787 5785 5782 5779 5776 5773 5770 5768 5765 5763 5760 5758 5756 5753 5751 5749 5747 5746 5746 5746 5746 5747 5747 5748 5748 5748 5749 5750 5750 5751 5751 5752 5752 5753 5753 5754 5754 5754 5755 5755 5755 5755 5755
5790 5787 5784 5781 5778 5774 5772 5769 5766 5763 5760 5757 5754 5752 5749 5746 5744 5743 5742 5742 5742 5743 5743 5744 5744 5744 5745 5745 5746 5746 5746 5747 5748 5748 5749 5749 5749 5750 5750 5750 5750 5750 5750
5793 5790 5786 5783 5780 5776 5773 5770 5767 5764 5761 5758 5755 5752 5749 5746 5743 5741 5740 5740 5740 5740 5740 5741 5741 5741 5742 5742 5742 5742 5743 5743 5744 5744 5745 5745 5745 5745 5746 5746 5746 5746 5746
5796 5793 5789 5786 5782 5779 5776 5772 5769 5766 5762 5759 5756 5753 5750 5747 5744 5742 5740 5739 5739 5739 5739 5739 5739 5739 5739 5739 5739 5739 5740 5740 5740 5741 5741 5741 5742 5742 5742 5742 5742 5741 5741
5799 5796 5792 5789 5785 5782 5779 5775 5772 5768 5765 5762 5759 5756 5753 5749 5746 5744 5741 5740 5739 5739 5739 5739 5738 5738 5738 5738 5738 5737 5738 5738 5738 5738 5738 5739 5739 5739 5739 5738 5738 5738 5737
5803 5799 5796 5792 5789 5785 5782 5779 5775 5772 5769 5765 5762 5759 5756 5753 5750 5747 5744 5742 5741 5740 5740 5739 5739 5739 5738 5738 5737 5737 5737 5737 5737 5737 5737 5737 5737 5737 5736 5736 5735 5734 5733
5806 5802 5799 5796 5793 5789 5786 5782 5779 5776 5773 5769 5766 5763 5760 5757 5754 5752 5749 5747 5745 5744 5743 5742 5741 5741 5740 5739 5739 5738 5737 5737 5737 5736 5736 5736 5735 5735 5734 5733 5733 5732 5731
5808 5805 5802 5799 5796 5793 5789 5786 5783 5780 5777 5774 5771 5768 5765 5762 5759 5757 5755 5752 5750 5749 5747 5746 5745 5744 5743 5742 5741 5740 5739 5738 5738 5737 5736 5736 5735 5734 5733 5732 5731 5730 5728
5811 5808 5805 5802 5799 5796 5793 5790 5787 5784 5781 5778 5775 5772 5770 5767 5765 5762 5760 5758 5756 5754 5752 5751 5749 5748 5747 5746 5745 5743 5742 5741 5740 5739 5738 5737 5736 5734 5733 5731 5730 5729 5727
5813 5810 5808 5805 5802 5799 5796 5793 5790 5787 5784 5782 5779 5776 5774 5772 5769 5767 5765 5763 5761 5759 5757 5756 5754 5753 5751 5750 5749 5747 5746 5744 5743 5742 5740 5739 5737 5735 5734 5732 5730 5728 5727
5814 5812 5810 5807 5805 5802 5799 5796 5794 5791 5788 5785 5783 5780 5778 5776 5774 5772 5769 5767 5766 5764 5762 5760 5759 5757 5755 5754 5752 5751 5749 5748 5746 5744 5743 5741 5739 5737 5735 5733 5731 5729 5727
5815 5813 5811 5809 5807 5804 5802 5799 5796 5794 5791 5789 5786 5784 5782 5779 5777 5775 5773 5771 5770 5768 5766 5764 5762 5761 5759 5757 5756 5754 5752 5751 5749 5747 5745 5743 5741 5739 5737 5735 5733 5730 5728
5815 5813 5812 5810 5808 5806 5804 5801 5799 5797 5794 5792 5789 5787 5785 5783 5781 5779 5777 5775 5773 5771 5769 5768 5766 5764 5762 5761 5759 5757 5755 5753 5751 5749 5747 5745 5743 5741 5739 5737 5734 5731 5729
5814 5813 5812 5810 5808 5807 5805 5803 5801 5799 5796 5794 5792 5790 5788 5786 5784 5782 5780 5778 5776 5775 5773 5771 5769 5767 5765 5764 5762 5760 5758 5756 5754 5752 5750 5747 5745 5743 5740 5738 5735 5732 5730
5813 5812 5811 5810 5808 5807 5805 5804 5802 5800 5798 5796 5794 5792 5790 5788 5786 5785 5783 5781 5779 5778 5776 5774 5772 5770 5768 5766 5765 5763 5760 5758 5756 5754 5752 5749 5747 5744 5742 5739 5736 5733 5730